Overview Statistics Trail Chart Weather Telemetry Raw packets
 

This is the latest recevied weather packets stored in our database for station/object YM2KA-13. If no packets are shown the sender has not sent any weather packets the latest 10 day(s).

<< 72 73 74 75 76 77 78 >>
Time Temp. Humidity Pressure Rain* Wind** Luminosity Snow
1788022388 20° C 56% 1008.7 hPa 0 mm - - -
1788022215 20° C 56% 1008.7 hPa 0 mm - - -
1788021617 20.56° C 56% 1008.6 hPa 0 mm - - -
1788021484 20.56° C 56% 1008.6 hPa 0 mm - - -
1788021017 20.56° C 55% 1008.6 hPa 0 mm - - -
1788020581 20.56° C 55% 1008.4 hPa 0 mm - - -
1788020418 20.56° C 55% 1008.3 hPa 0 mm - - -
1788019820 21.11° C 54% 1008.2 hPa 0 mm - - -
1788019688 21.11° C 54% 1008.2 hPa 0 mm - - -
1788019220 21.11° C 53% 1008.2 hPa 0 mm - - -
1788018784 21.11° C 53% 1008.2 hPa 0 mm - - -
1788018622 21.11° C 53% 1008.2 hPa 0 mm - - -
1788018012 21.11° C 54% 1008.1 hPa 0 mm - - -
1788017880 21.11° C 54% 1008.2 hPa 0 mm - - -
1788017413 21.11° C 54% 1008.1 hPa 0 mm - - -
1788016986 21.11° C 54% 1008.1 hPa 0 mm - - -
1788016813 21.11° C 53% 1008.2 hPa 0 mm - - -
1788016214 21.67° C 53% 1008 hPa 0 mm - - -
1788016082 21.67° C 53% 1008 hPa 0 mm - - -
1788015615 21.11° C 54% 1008.1 hPa 0 mm - - -
1788015179 21.11° C 55% 1008.2 hPa 0 mm - - -
1788015016 21.11° C 55% 1008.2 hPa 0 mm - - -
1788014418 20.56° C 57% 1008.3 hPa 0 mm - - -
1788014285 20.56° C 56% 1008.2 hPa 0 mm - - -
1788013818 21.11° C 54% 1008.3 hPa 0 mm - - -

* Rain latest hour (hover to see other rain measurements)
** Current wind speed in m/s (hover to see current wind gust speed)